Monclova, OH

6:56 PM EDT on September 28, 2016 (GMT -0400)
Toledo Express

Weather History for KTOL - July, 2013

Change the Weather History Date:

Tuesday, July 9, 2013

  Actual Average Record
Temperature  
Mean Temperature 79 °F 74 °F  
Max Temperature 88 °F 85 °F 100 °F (1936)
Min Temperature 69 °F 63 °F 43 °F (1961)
Degree Days  
Heating Degree Days 0 0  
Month to date heating degree days 1 0  
Since 1 June heating degree days 32 35  
Since 1 July heating degree days 1 0  
Cooling Degree Days 14 9  
Month to date cooling degree days 71 79  
Year to date cooling degree days 327 302  
Since 1 June cooling degree days 233 249  
Growing Degree Days 28 (Base 50)    
Moisture  
Dew Point 71 °F    
Average Humidity 83    
Maximum Humidity 100    
Minimum Humidity 65    
Precipitation  
Precipitation 0.59 in 0.10 in 1.87 in (2015)
Month to date precipitation 1.57 0.89  
Year to date precipitation 22.42 17.83  
Snow  
Snow 0.00 in 0.00 in - ()
Month to date snowfall 0.0 0.0  
Since 1 June snowfall 0.0 0.0  
Since 1 July snowfall 0.0 0.0  
Snow Depth 0.00 in    
Sea Level Pressure  
Sea Level Pressure 29.97 in    
Wind  
Wind Speed 7 mph (WSW)    
Max Wind Speed 22 mph    
Max Gust Speed 29 mph    
Visibility 5 miles    
Events Rain , Thunderstorm    
T = Trace of Precipitation, MM = Missing Value Source: NWS Daily Summary

Daily Weather History Graph

Daily Weather History Graph

Search for Another Location

Airport or City:

Trip Planner

Search our weather history database for the weather conditions in past years. The results will help you decide how hot, cold, wet, or windy it might be!

Date:

Astronomy

Jul. 09, 2013 Rise Set
Actual Time 6:09 AM EDT 9:10 PM EDT
Civil Twilight 5:36 AM EDT 9:44 PM EDT
Nautical Twilight 4:53 AM EDT 10:26 PM EDT
Astronomical Twilight 4:03 AM EDT 11:16 PM EDT
Moon 7:35 AM EDT (7/9) 9:45 PM EDT (7/9)
Length of Visible Light 16h 07m
Length of Day
15h 00m
New Moon, 2% of the Moon is Illuminated
Jul 9
New Moon
Jul 15
First Quarter
Jul 22
Full
Jul 29
Last Quarter
Aug 6
New

Hourly Weather History & Observations

Time (EDT) Temp. Heat Index Dew Point Humidity Pressure Visibility Wind Dir Wind Speed Gust Speed Precip Events Conditions
12:11 AM 71.6 °F - 69.8 °F 94% 30.01 in 7.0 mi South 6.9 mph - N/A   Overcast
12:29 AM 71.6 °F - 69.8 °F 94% 30.00 in 6.0 mi South 8.1 mph - N/A   Mostly Cloudy
12:45 AM 71.6 °F - 69.8 °F 94% 29.99 in 2.0 mi SSW 11.5 mph 16.1 mph 0.00 in Rain Heavy Rain
12:49 AM 71.6 °F - 69.8 °F 94% 29.99 in 1.2 mi SSE 9.2 mph - 0.13 in Rain Heavy Rain
12:52 AM 71.1 °F - 69.1 °F 93% 29.99 in 1.2 mi Variable 3.5 mph 16.1 mph 0.15 in Rain Rain
12:55 AM 71.6 °F - 69.8 °F 94% 30.00 in 2.5 mi Variable 4.6 mph 16.1 mph 0.00 in Rain Light Rain
1:01 AM 71.6 °F - 69.8 °F 94% 30.00 in 7.0 mi Calm Calm - 0.00 in Rain Light Rain
1:06 AM 71.6 °F - 69.8 °F 94% 30.00 in 1.8 mi Calm Calm - 0.02 in Rain Heavy Rain
1:10 AM 71.6 °F - 69.8 °F 94% 29.99 in 1.2 mi South 4.6 mph - 0.09 in Rain Heavy Rain
1:15 AM 71.6 °F - 69.8 °F 94% 29.99 in 2.0 mi South 6.9 mph - 0.10 in Rain Light Rain
1:18 AM 71.6 °F - 69.8 °F 94% 30.00 in 5.0 mi South 3.5 mph - 0.10 in Rain Light Rain
1:52 AM 71.1 °F - 69.1 °F 93% 29.97 in 8.0 mi South 4.6 mph - 0.10 in   Mostly Cloudy
2:52 AM 70.0 °F - 68.0 °F 93% 29.97 in 6.0 mi Calm Calm - N/A   Clear
2:59 AM 69.8 °F - 68.0 °F 94% 29.98 in 6.0 mi SSW 3.5 mph - N/A   Scattered Clouds
3:52 AM 69.1 °F - 68.0 °F 96% 29.97 in 4.0 mi Calm Calm - N/A   Clear
4:52 AM 72.0 °F - 70.0 °F 93% 29.97 in 5.0 mi WSW 6.9 mph - N/A   Clear
5:52 AM 72.0 °F - 71.1 °F 97% 29.98 in 5.0 mi WSW 6.9 mph - N/A   Overcast
6:37 AM 71.6 °F - 69.8 °F 94% 29.99 in 2.5 mi West 4.6 mph - N/A   Overcast
6:52 AM 72.0 °F - 70.0 °F 93% 29.98 in 2.5 mi WSW 5.8 mph - N/A   Mostly Cloudy
7:24 AM 73.4 °F - 71.6 °F 94% 30.00 in 2.5 mi WSW 8.1 mph - N/A   Overcast
7:52 AM 73.0 °F - 71.1 °F 93% 29.99 in 2.5 mi West 6.9 mph - N/A   Overcast
8:49 AM 73.4 °F - 71.6 °F 94% 30.01 in 2.5 mi West 8.1 mph - N/A   Overcast
8:52 AM 73.9 °F - 71.1 °F 91% 29.99 in 2.5 mi West 6.9 mph - N/A   Overcast
9:52 AM 75.0 °F - 71.1 °F 87% 30.00 in 2.5 mi WNW 6.9 mph - N/A   Overcast
10:52 AM 75.9 °F - 71.1 °F 85% 30.00 in 2.5 mi WNW 6.9 mph - N/A   Haze
11:52 AM 78.1 °F - 72.0 °F 81% 30.00 in 6.0 mi West 4.6 mph - N/A   Haze
12:29 PM 80.6 °F 85.4 °F 73.4 °F 79% 30.00 in 7.0 mi NW 4.6 mph - N/A   Overcast
12:52 PM 82.9 °F 88.8 °F 73.0 °F 72% 29.99 in 8.0 mi WSW 10.4 mph - N/A   Mostly Cloudy
1:52 PM 82.9 °F 88.8 °F 73.0 °F 72% 29.97 in 7.0 mi West 8.1 mph - N/A   Overcast
2:01 PM 84.2 °F 90.9 °F 73.4 °F 70% 29.98 in 7.0 mi WSW 10.4 mph - N/A   Mostly Cloudy
2:52 PM 86.0 °F 93.8 °F 73.9 °F 67% 29.94 in 8.0 mi Variable 6.9 mph - N/A   Scattered Clouds
3:32 PM 87.8 °F 95.6 °F 73.4 °F 62% 29.95 in 8.0 mi WSW 10.4 mph - N/A Thunderstorm Mostly Cloudy
3:52 PM 82.0 °F 85.9 °F 70.0 °F 67% 29.94 in 9.0 mi SW 18.4 mph 28.8 mph N/A Thunderstorm Thunderstorm
4:18 PM 73.4 °F - 69.8 °F 88% 29.95 in 2.5 mi WNW 9.2 mph - 0.06 in Rain , Thunderstorm Thunderstorms and Rain
4:27 PM 75.2 °F - 69.8 °F 83% 29.96 in 4.0 mi West 9.2 mph - 0.10 in Rain , Thunderstorm Light Thunderstorms and Rain
4:52 PM 73.0 °F - 71.1 °F 93% 29.98 in 8.0 mi NW 11.5 mph - 0.10 in Rain , Thunderstorm Light Thunderstorms and Rain
5:03 PM 71.6 °F - 69.8 °F 94% 29.99 in 1.5 mi NNW 16.1 mph 23.0 mph 0.03 in Rain , Thunderstorm Heavy Thunderstorms and Rain
5:07 PM 71.6 °F - 69.8 °F 94% 30.00 in 0.8 mi WNW 13.8 mph 23.0 mph 0.12 in Rain , Thunderstorm Heavy Thunderstorms and Rain
5:13 PM 71.6 °F - 69.8 °F 94% 29.98 in 1.0 mi Variable 3.5 mph 19.6 mph 0.23 in Rain , Thunderstorm Light Thunderstorms and Rain
5:18 PM 71.6 °F - 69.8 °F 94% 29.97 in 2.5 mi NW 6.9 mph - 0.23 in Rain , Thunderstorm Thunderstorms and Rain
5:25 PM 71.6 °F - 69.8 °F 94% 29.98 in 3.0 mi NW 5.8 mph - 0.25 in Rain , Thunderstorm Light Rain
5:41 PM 71.6 °F - 69.8 °F 94% 29.97 in 6.0 mi West 5.8 mph - 0.26 in Rain , Thunderstorm Light Thunderstorms and Rain
5:52 PM 73.0 °F - 70.0 °F 90% 29.95 in 4.0 mi West 10.4 mph - 0.28 in Rain , Thunderstorm Light Thunderstorms and Rain
6:13 PM 73.4 °F - 69.8 °F 88% 29.94 in 9.0 mi West 9.2 mph - 0.00 in Rain Light Rain
6:52 PM 73.0 °F - 70.0 °F 90% 29.91 in 10.0 mi WNW 8.1 mph - 0.00 in   Scattered Clouds
7:52 PM 73.0 °F - 70.0 °F 90% 29.93 in 10.0 mi South 3.5 mph - N/A   Clear
8:52 PM 73.0 °F - 71.1 °F 93% 29.93 in 10.0 mi SSW 3.5 mph - N/A   Overcast
9:52 PM 73.0 °F - 71.1 °F 93% 29.93 in 10.0 mi South 3.5 mph - N/A   Mostly Cloudy
10:52 PM 73.9 °F - 72.0 °F 93% 29.92 in 6.0 mi South 5.8 mph - 0.01 in Rain Light Rain
11:12 PM 73.4 °F - 71.6 °F 94% 29.93 in 8.0 mi South 3.5 mph - 0.00 in Thunderstorm Overcast
11:38 PM 73.4 °F - 71.6 °F 94% 29.92 in 8.0 mi South 6.9 mph - 0.00 in   Overcast
11:52 PM 73.9 °F - 71.1 °F 91% 29.90 in 7.0 mi South 6.9 mph - 0.00 in   Mostly Cloudy